AWQ265 WSSS-WIII

Flight info

Callsign AWQ265
Flight time N/A
Altitude 34000
Route ANITO8B ANITO B470 BUNIK
Aircraft A320/M-SDE3FGHIRWY/LB1

Departure

Time N/A
Airport Singapore Changi Airport (WSSS)

Arrival

Time 2026-05-07 04:39
Airport Soekarno-Hatta International Airport (WIII)
Time Latitude Longitude Altitude Speed Heading
2026-05-07 04:28 -6.13143 106.27168 5009 ft 230 kts 33°
2026-05-07 04:29 -6.11984 106.28224 5012 ft 224 kts 60°
2026-05-07 04:29 -6.11478 106.29683 5011 ft 222 kts 87°
2026-05-07 04:29 -6.11704 106.31202 5010 ft 222 kts 113°
2026-05-07 04:29 -6.12626 106.32446 5010 ft 227 kts 140°
2026-05-07 04:30 -6.14063 106.33111 5012 ft 232 kts 165°
2026-05-07 04:30 -6.15660 106.33404 5011 ft 234 kts 167°
2026-05-07 04:30 -6.17225 106.33659 5002 ft 220 kts 167°
2026-05-07 04:30 -6.18690 106.33893 5002 ft 210 kts 166°
2026-05-07 04:31 -6.20045 106.34358 4954 ft 203 kts 146°
2026-05-07 04:31 -6.21123 106.35240 4851 ft 199 kts 127°
2026-05-07 04:31 -6.21836 106.36418 4707 ft 197 kts 117°
2026-05-07 04:31 -6.22538 106.37604 4553 ft 198 kts 120°
2026-05-07 04:32 -6.23249 106.38784 4391 ft 197 kts 112°
2026-05-07 04:32 -6.23574 106.40094 4263 ft 190 kts 92°
2026-05-07 04:32 -6.23406 106.41367 4106 ft 180 kts 73°
2026-05-07 04:32 -6.22962 106.42493 4004 ft 166 kts 70°
2026-05-07 04:33 -6.22555 106.43518 3993 ft 151 kts 71°
2026-05-07 04:33 -6.22166 106.44497 3998 ft 150 kts 71°
2026-05-07 04:33 -6.21777 106.45473 3890 ft 150 kts 71°
2026-05-07 04:33 -6.21391 106.46447 3731 ft 150 kts 71°
2026-05-07 04:34 -6.21005 106.47415 3549 ft 149 kts 71°
2026-05-07 04:34 -6.20622 106.48380 3358 ft 149 kts 71°
2026-05-07 04:34 -6.20239 106.49340 3163 ft 148 kts 71°
2026-05-07 04:34 -6.19857 106.50298 2970 ft 147 kts 71°
2026-05-07 04:35 -6.19476 106.51254 2772 ft 147 kts 70°
2026-05-07 04:35 -6.19097 106.52208 2567 ft 147 kts 70°
2026-05-07 04:35 -6.18721 106.53153 2395 ft 145 kts 69°
2026-05-07 04:35 -6.18345 106.54096 2196 ft 145 kts 69°
2026-05-07 04:36 -6.17971 106.55035 2000 ft 145 kts 68°
2026-05-07 04:36 -6.17598 106.55973 1809 ft 145 kts 68°
2026-05-07 04:36 -6.17227 106.56905 1622 ft 144 kts 68°
2026-05-07 04:36 -6.16857 106.57834 1426 ft 143 kts 68°
2026-05-07 04:37 -6.16490 106.58754 1241 ft 144 kts 67°
2026-05-07 04:37 -6.16120 106.59684 1049 ft 143 kts 67°
2026-05-07 04:37 -6.15745 106.60625 854 ft 143 kts 67°
2026-05-07 04:37 -6.15374 106.61555 664 ft 143 kts 67°
2026-05-07 04:38 -6.15009 106.62473 470 ft 144 kts 68°
2026-05-07 04:38 -6.14633 106.63418 296 ft 144 kts 67°
2026-05-07 04:38 -6.14262 106.64336 132 ft 144 kts 67°
2026-05-07 04:38 -6.13890 106.65261 48 ft 138 kts 66°
2026-05-07 04:39 -6.13581 106.66029 38 ft 95 kts 68°
2026-05-07 04:39 -6.13385 106.66522 42 ft 62 kts 68°
2026-05-07 04:39 -6.13241 106.66887 41 ft 51 kts 68°
2026-05-07 04:39 -6.13120 106.67186 39 ft 38 kts 68°
2026-05-07 04:40 -6.13043 106.67364 39 ft 19 kts 56°
2026-05-07 04:40 -6.12930 106.67418 39 ft 18 kts 356°
2026-05-07 04:40 -6.12832 106.67431 38 ft 15 kts 49°
2026-05-07 04:40 -6.12764 106.67546 38 ft 25 kts 59°
2026-05-07 04:41 -6.12677 106.67696 38 ft 25 kts 60°
2026-05-07 04:41 -6.12554 106.67816 38 ft 25 kts 29°
2026-05-07 04:41 -6.12389 106.67853 38 ft 24 kts 358°
2026-05-07 04:41 -6.12227 106.67810 38 ft 24 kts 338°
2026-05-07 04:42 -6.12072 106.67748 36 ft 24 kts 339°
2026-05-07 04:42 -6.11918 106.67689 38 ft 24 kts 339°
2026-05-07 04:42 -6.11766 106.67632 38 ft 23 kts 339°
2026-05-07 04:42 -6.11620 106.67568 38 ft 23 kts 337°
2026-05-07 04:43 -6.11475 106.67508 38 ft 22 kts 338°
2026-05-07 04:43 -6.11332 106.67455 38 ft 22 kts 340°
2026-05-07 04:43 -6.11195 106.67401 38 ft 21 kts 338°
2026-05-07 04:43 -6.11083 106.67322 37 ft 20 kts 290°
2026-05-07 04:44 -6.11096 106.67199 38 ft 11 kts 256°
2026-05-07 04:44 -6.11114 106.67117 38 ft 16 kts 258°
2026-05-07 04:44 -6.11146 106.66991 38 ft 22 kts 252°
2026-05-07 04:44 -6.11202 106.66850 38 ft 21 kts 248°
2026-05-07 04:45 -6.11255 106.66715 38 ft 20 kts 248°
2026-05-07 04:45 -6.11308 106.66582 38 ft 22 kts 248°
2026-05-07 04:45 -6.11364 106.66442 38 ft 21 kts 248°
2026-05-07 04:45 -6.11417 106.66311 38 ft 19 kts 248°
2026-05-07 04:46 -6.11468 106.66182 38 ft 23 kts 247°
2026-05-07 04:46 -6.11528 106.66032 38 ft 23 kts 248°
2026-05-07 04:46 -6.11586 106.65887 36 ft 22 kts 248°
2026-05-07 04:46 -6.11642 106.65747 38 ft 21 kts 248°
2026-05-07 04:47 -6.11694 106.65616 38 ft 19 kts 248°
2026-05-07 04:47 -6.11741 106.65500 38 ft 16 kts 248°
2026-05-07 04:47 -6.11778 106.65409 38 ft 12 kts 248°
2026-05-07 04:47 -6.11804 106.65341 38 ft 11 kts 249°
2026-05-07 04:48 -6.11844 106.65275 38 ft 9 kts 207°
2026-05-07 04:48 -6.11895 106.65289 38 ft 9 kts 136°
2026-05-07 04:48 -6.11933 106.65334 38 ft 7 kts 129°
2026-05-07 04:48 -6.11956 106.65374 38 ft 5 kts 102°
2026-05-07 04:49 -6.11968 106.65399 38 ft 4 kts 138°
2026-05-07 04:49 -6.11992 106.65411 38 ft 4 kts 154°
2026-05-07 04:49 -6.12021 106.65421 38 ft 3 kts 161°
2026-05-07 04:49 -6.12032 106.65426 36 ft 2 kts 158°
2026-05-07 04:50 -6.12042 106.65430 37 ft 2 kts 158°
2026-05-07 04:50 -6.12049 106.65432 38 ft 0 kts 158°
2026-05-07 04:50 -6.12051 106.65433 38 ft 0 kts 158°